When you browse on this site, cookies collect data to enhance your experience and personalize the content and advertising you see.
Visit our Privacy Policy to learn more. By continuing to use the site, you agree to this use of cookies and data.

Hourly Weather Liverpool

Today, 22 September, Tuesday

Time Temperature Precipitation Wind Pressure Humidity
00:00 +6°C° 0 mm 5 mps 767 mmHg 77%
01:00 +5°C° 0 mm 6 mps 766 mmHg 75%
02:00 +7°C° 0 mm 6 mps 766 mmHg 74%
03:00 +6°C° 0 mm 7 mps 764 mmHg 72%
04:00 +6°C° 0 mm 8 mps 763 mmHg 71%
05:00 +7°C° 0 mm 9 mps 762 mmHg 70%
06:00 +7°C° 0.3 mm 9 mps 761 mmHg 68%
07:00 +7°C° 0.3 mm 10 mps 761 mmHg 66%
08:00 +7°C° 0.3 mm 11 mps 760 mmHg 63%
09:00 +7°C° 1.2 mm 12 mps 759 mmHg 74%
10:00 +5°C° 1.2 mm 12 mps 757 mmHg 84%
11:00 +5°C° 1.2 mm 13 mps 756 mmHg 94%
12:00 +5°C° 1.6 mm 13 mps 754 mmHg 94%
13:00 +7°C° 1.6 mm 13 mps 753 mmHg 94%
14:00 +8°C° 1.6 mm 13 mps 751 mmHg 95%
15:00 +9°C° 2.4 mm 13 mps 750 mmHg 95%
16:00 +10°C° 2.4 mm 12 mps 748 mmHg 95%
17:00 +10°C° 2.4 mm 12 mps 747 mmHg 95%
18:00 +12°C° 0.7 mm 11 mps 746 mmHg 95%
19:00 +13°C° 0.7 mm 11 mps 745 mmHg 96%
20:00 +13°C° 0.7 mm 10 mps 744 mmHg 96%
21:00 +13°C° 0.4 mm 9 mps 743 mmHg 96%
22:00 +15°C° 0.4 mm 9 mps 741 mmHg 97%
23:00 +15°C° 0.4 mm 8 mps 740 mmHg 97%

Tomorrow, 23 September, Wednesday

Time Temperature Precipitation Wind Pressure Humidity
00:00 +15°C° 2.3 mm 9 mps 739 mmHg 97%
01:00 +16°C° 2.3 mm 10 mps 737 mmHg 97%
02:00 +16°C° 2.3 mm 11 mps 735 mmHg 97%
03:00 +16°C° 5.3 mm 11 mps 735 mmHg 96%
04:00 +15°C° 5.3 mm 12 mps 734 mmHg 96%
05:00 +15°C° 5.3 mm 12 mps 733 mmHg 96%
06:00 +14°C° 2.4 mm 13 mps 734 mmHg 95%
07:00 +14°C° 2.4 mm 13 mps 735 mmHg 94%
08:00 +13°C° 2.4 mm 13 mps 736 mmHg 93%
09:00 +13°C° 0 mm 12 mps 737 mmHg 89%
10:00 +13°C° 0 mm 11 mps 739 mmHg 84%
11:00 +13°C° 0 mm 10 mps 740 mmHg 80%
12:00 +13°C° 0 mm 10 mps 742 mmHg 78%
13:00 +13°C° 0 mm 9 mps 743 mmHg 76%
14:00 +13°C° 0 mm 8 mps 745 mmHg 74%
15:00 +15°C° 0 mm 8 mps 745 mmHg 73%
16:00 +15°C° 0 mm 7 mps 746 mmHg 72%
17:00 +15°C° 0 mm 6 mps 746 mmHg 71%
18:00 +15°C° 0 mm 6 mps 747 mmHg 69%
19:00 +15°C° 0 mm 6 mps 748 mmHg 68%
20:00 +15°C° 0 mm 5 mps 748 mmHg 66%
21:00 +15°C° 0 mm 5 mps 749 mmHg 68%
22:00 +15°C° 0 mm 5 mps 749 mmHg 70%
23:00 +15°C° 0 mm 5 mps 750 mmHg 72%

Day after tomorrow, 24 September, Thursday

Time Temperature Precipitation Wind Pressure Humidity
00:00 +14°C° 0 mm 5 mps 750 mmHg 77%
01:00 +14°C° 0 mm 5 mps 751 mmHg 82%
02:00 +13°C° 0 mm 5 mps 751 mmHg 87%
03:00 +13°C° 0 mm 5 mps 751 mmHg 89%
04:00 +12°C° 0 mm 5 mps 752 mmHg 91%
05:00 +12°C° 0 mm 4 mps 752 mmHg 93%
06:00 +13°C° 0 mm 4 mps 753 mmHg 89%
07:00 +13°C° 0 mm 4 mps 754 mmHg 85%
08:00 +14°C° 0 mm 4 mps 754 mmHg 81%
09:00 +15°C° 0 mm 4 mps 755 mmHg 73%
10:00 +18°C° 0 mm 4 mps 755 mmHg 65%
11:00 +20°C° 0 mm 4 mps 755 mmHg 58%
12:00 +20°C° 0 mm 4 mps 755 mmHg 54%
13:00 +21°C° 0 mm 4 mps 755 mmHg 51%
14:00 +22°C° 0 mm 4 mps 756 mmHg 48%
15:00 +21°C° 0 mm 3 mps 756 mmHg 52%
16:00 +20°C° 0 mm 3 mps 756 mmHg 56%
17:00 +20°C° 0 mm 3 mps 756 mmHg 61%
18:00 +18°C° 0 mm 3 mps 757 mmHg 67%
19:00 +14°C° 0 mm 3 mps 758 mmHg 74%
20:00 +12°C° 0 mm 4 mps 758 mmHg 81%
21:00 +12°C° 0 mm 4 mps 759 mmHg 82%
22:00 +12°C° 0 mm 4 mps 759 mmHg 83%
23:00 +11°C° 0 mm 4 mps 759 mmHg 85%

25 September, Friday

Time Temperature Precipitation Wind Pressure Humidity
00:00 +11°C° 0 mm 4 mps 759 mmHg 85%
01:00 +11°C° 0 mm 3 mps 759 mmHg 86%
02:00 +12°C° 0 mm 3 mps 759 mmHg 87%
03:00 +12°C° 0 mm 3 mps 759 mmHg 86%
04:00 +13°C° 0 mm 2 mps 760 mmHg 86%
05:00 +13°C° 0 mm 2 mps 760 mmHg 85%
06:00 +14°C° 0 mm 2 mps 760 mmHg 82%
07:00 +14°C° 0 mm 3 mps 760 mmHg 80%
08:00 +16°C° 0 mm 3 mps 760 mmHg 77%
09:00 +17°C° 0 mm 4 mps 761 mmHg 75%
10:00 +19°C° 0 mm 4 mps 761 mmHg 72%
11:00 +21°C° 0 mm 5 mps 761 mmHg 70%
12:00 +21°C° 0 mm 5 mps 761 mmHg 70%
13:00 +21°C° 0 mm 5 mps 760 mmHg 71%
14:00 +21°C° 0 mm 5 mps 760 mmHg 71%
15:00 +21°C° 0 mm 4 mps 760 mmHg 71%
16:00 +21°C° 0 mm 4 mps 760 mmHg 72%
17:00 +21°C° 0 mm 3 mps 760 mmHg 73%
18:00 +19°C° 0 mm 3 mps 761 mmHg 80%
19:00 +17°C° 0 mm 3 mps 761 mmHg 87%
20:00 +16°C° 0 mm 2 mps 761 mmHg 93%
21:00 +15°C° 0 mm 2 mps 761 mmHg 94%
22:00 +15°C° 0 mm 2 mps 761 mmHg 94%
23:00 +15°C° 0 mm 2 mps 761 mmHg 95%

26 September, Saturday

Time Temperature Precipitation Wind Pressure Humidity
00:00 +14°C° 0 mm 2 mps 761 mmHg 94%
01:00 +14°C° 0 mm 2 mps 761 mmHg 93%
02:00 +14°C° 0 mm 2 mps 761 mmHg 93%
03:00 +14°C° 0 mm 2 mps 761 mmHg 93%
04:00 +14°C° 0 mm 1 mps 761 mmHg 93%
05:00 +15°C° 0 mm 1 mps 762 mmHg 94%
06:00 +16°C° 0 mm 2 mps 762 mmHg 92%
07:00 +16°C° 0 mm 2 mps 762 mmHg 91%
08:00 +17°C° 0 mm 3 mps 762 mmHg 90%
09:00 +20°C° 0 mm 3 mps 762 mmHg 81%
10:00 +22°C° 0 mm 3 mps 762 mmHg 72%
11:00 +25°C° 0 mm 3 mps 762 mmHg 64%
12:00 +26°C° 0 mm 4 mps 762 mmHg 59%
13:00 +27°C° 0 mm 5 mps 762 mmHg 54%
14:00 +27°C° 0 mm 5 mps 762 mmHg 49%
15:00 +26°C° 0 mm 5 mps 762 mmHg 53%
16:00 +25°C° 0 mm 5 mps 762 mmHg 58%
17:00 +23°C° 0 mm 4 mps 762 mmHg 62%
18:00 +21°C° 0 mm 4 mps 762 mmHg 71%
19:00 +19°C° 0 mm 4 mps 762 mmHg 80%
20:00 +16°C° 0 mm 3 mps 763 mmHg 90%
21:00 +16°C° 0 mm 3 mps 763 mmHg 92%
22:00 +16°C° 0 mm 3 mps 763 mmHg 94%
23:00 +14°C° 0 mm 3 mps 763 mmHg 96%

27 September, Sunday

Time Temperature Precipitation Wind Pressure Humidity
00:00 +14°C° 0 mm 3 mps 763 mmHg 96%
01:00 +14°C° 0 mm 3 mps 763 mmHg 97%
02:00 +14°C° 0 mm 3 mps 762 mmHg 97%
03:00 +14°C° 0 mm 3 mps 762 mmHg 97%
04:00 +14°C° 0 mm 3 mps 762 mmHg 96%
05:00 +14°C° 0 mm 3 mps 762 mmHg 96%
06:00 +16°C° 0 mm 3 mps 762 mmHg 90%
07:00 +17°C° 0 mm 4 mps 763 mmHg 85%
08:00 +17°C° 0 mm 4 mps 763 mmHg 80%
09:00 +19°C° 0 mm 4 mps 763 mmHg 73%
10:00 +21°C° 0 mm 5 mps 762 mmHg 66%
11:00 +23°C° 0 mm 5 mps 762 mmHg 59%
12:00 +23°C° 0 mm 6 mps 762 mmHg 60%
13:00 +23°C° 0 mm 6 mps 762 mmHg 61%
14:00 +23°C° 0 mm 6 mps 761 mmHg 62%
15:00 +22°C° 0 mm 6 mps 761 mmHg 67%
16:00 +21°C° 0 mm 6 mps 761 mmHg 72%
17:00 +21°C° 0 mm 5 mps 760 mmHg 77%
18:00 +20°C° 0 mm 5 mps 760 mmHg 82%
19:00 +19°C° 0 mm 5 mps 760 mmHg 86%
20:00 +17°C° 0 mm 5 mps 759 mmHg 91%
21:00 +17°C° 0 mm 5 mps 759 mmHg 92%
22:00 +17°C° 0 mm 6 mps 759 mmHg 93%
23:00 +19°C° 0 mm 6 mps 759 mmHg 94%
Show more